Regional Weather Roundup
Issued by NWS Albany, NY

Home | Current Version | Previous Version | Text Only | Print | Product List | Glossary On
Versions: 1 2 3 4 5 6 7 8 9 10 11 12 13 14 15 16 17 18 19 20 21 22 23 24 25 26 27 28 29 30 31 32 33 34 35 36 37 38 39 40 41 42 43 44 45 46 47 48 49 50
000
ASUS41 KALY 251210
RWRALY

NEW YORK STATE HOURLY WEATHER ROUNDUP
NATIONAL WEATHER SERVICE ALBANY NY
700 AM EST THU DEC 25 2014

NOTE: "FAIR" INDICATES FEW OR NO CLOUDS BELOW 12,000 FEET WITH NO
SIGNIFICANT WEATHER AND/OR NO OBSTRUCTIONS TO VISIBILITY.

NYZ032-033-038>043-046>054-057>066-NYZ062>081-251300-
EAST


CITY           SKY/WX    TMP DP  RH WIND       PRES   REMARKS
ALBANY         CLOUDY    50  39  66 W15G23    29.54R
GLENS FALLS    LGT RAIN  47  40  76 W6G22     29.50R
POUGHKEEPSIE   CLOUDY    51  41  68 W12       29.59R
NEWBURGH       DRIZZLE   48  43  81 W14G21    29.60R
MONTGOMERY     CLOUDY    48  42  80 W10       29.59R
WHITE PLAINS   LGT RAIN  51  43  74 W10       29.61R
ISLIP          LGT RAIN  53  51  93 SW9       29.58R
NEW YORK CITY  LGT RAIN  51  42  71 W16G30    29.63R
CENTRAL PARK   LGT RAIN  51  42  71 W10G22    29.63R
$$

NYZ005>009-017-018-044>046-055-056-251300-
CENTRAL


CITY           SKY/WX    TMP DP  RH WIND       PRES   REMARKS
FULTON         CLOUDY    44  32  62 W15       29.56R
SYRACUSE       MOCLDY    45  33  63 W17       29.55R
ROME           CLOUDY    45  33  63 W9G23     29.55R
ELMIRA         MOCLDY    43  33  68 W17G31    29.60R
BINGHAMTON     MOCLDY    40  32  73 W14G23    29.57R WCI  32
MONTICELLO     CLOUDY    39  39 100 W8        29.59R WCI  34
$$

NYZ026>034-041>043-251300-
NORTH


CITY           SKY/WX    TMP DP  RH WIND       PRES   REMARKS
WATERTOWN      CLOUDY    44  33  65 SW29G39   29.50R
FORT DRUM      NOT AVBL
MASSENA        CLOUDY    42  33  70 SW30G45   29.36F
SARANAC LAKE   CLOUDY    39  37  92 SW17G31   29.39R WCI  30
PLATTSBURGH    CLOUDY    48  33  56 SW9G23    29.37R
$$

NYZ001>004-010>016-019>021-251300-
WEST


CITY           SKY/WX    TMP DP  RH WIND       PRES   REMARKS
NIAGARA FALLS  MOCLDY    39  34  82 SW24G36   29.60R WCI  28
BUFFALO        CLOUDY    40  33  76 W29G39    29.60R WCI  29
DUNKIRK        CLOUDY    39  34  82 SW25G40   29.67R WCI  28
JAMESTOWN      CLOUDY    34  30  86 W20       29.65R WCI  22
WELLSVILLE     CLOUDY    36  29  75 W13G23    29.62R WCI  27
ROCHESTER      CLOUDY    42  33  70 W25G43    29.58R
PENN YAN       PTCLDY    42  31  64 SW21G38   29.58R
$$

             KEY
       WCI = WIND CHILL INDEX
       VSB = VISIBILITY
       HX  = HEAT INDEX
$$



USA.gov is the U.S. government's official web portal to all federal, state and local government web resources and services.